EW1490 Weather Reports


Display with metric or nautical units.
time (UTC)temp
F
wind
direction
speed
MPH
gust
MPH
rain 1hr
in
rain 24hr
in
rain mn
in
humidity
%
barometer
mb
20210927162033 79 188 2.0 5.0 0.00 0.00 0.00 63 1019.9
20210927161532 79 68 1.0 5.0 0.00 0.00 0.00 61 1020.0
20210927161033 79 174 1.0 5.0 0.00 0.00 0.00 62 1020.1
20210927160534 78 9 1.0 2.0 0.00 0.00 0.00 66 1020.0
20210927160030 78 113 1.0 6.0 0.00 0.00 0.00 68 1020.0
20210927155531 78 159 1.0 6.0 0.00 0.00 0.00 67 1020.1
20210927155033 78 241 1.0 3.0 0.00 0.00 0.00 67 1020.1
20210927154533 77 19 1.0 4.0 0.00 0.00 0.00 72 1020.1
20210927154034 77 175 1.0 4.0 0.00 0.00 0.00 70 1020.1
20210927153536 76 12 1.0 4.0 0.00 0.00 0.00 71 1020.2
20210927153039 75 196 1.0 4.0 0.00 0.00 0.00 74 1020.3
20210927152537 75 188 2.0 4.0 0.00 0.00 0.00 73 1020.2
20210927152038 75 304 1.0 3.0 0.00 0.00 0.00 76 1020.3
20210927151603 74 201 1.0 3.0 0.00 0.00 0.00 77 1020.3
20210927151028 73 179 1.0 4.0 0.00 0.00 0.00 77 1020.3
20210927150533 73 61 1.0 3.0 0.00 0.00 0.00 77 1020.2
20210927150029 72 142 1.0 4.0 0.00 0.00 0.00 79 1020.2
20210927145529 72 182 2.0 4.0 0.00 0.00 0.00 81 1020.3
20210927145031 71 153 2.0 4.0 0.00 0.00 0.00 83 1020.3
20210927144533 70 181 1.0 3.0 0.00 0.00 0.00 83 1020.3
20210927144035 70 165 1.0 3.0 0.00 0.00 0.00 85 1020.3
20210927143536 69 169 1.0 3.0 0.00 0.00 0.00 85 1020.3
20210927143033 68 183 1.0 3.0 0.00 0.00 0.00 89 1020.3
20210927142533 68 70 1.0 2.0 0.00 0.00 0.00 86 1020.3
20210927142034 68 232 0.0 1.0 0.00 0.00 0.00 89 1020.3
20210927141532 67 232 0.0 2.0 0.00 0.00 0.00 88 1020.3
20210927141032 67 265 0.0 2.0 0.00 0.00 0.00 88 1020.3
20210927140533 66 331 0.0 1.0 0.00 0.00 0.00 90 1020.3
20210927140033 65 331 0.0 1.0 0.00 0.00 0.00 91 1020.4
20210927135529 65 331 0.0 1.0 0.00 0.00 0.00 91 1020.4
20210927135029 64 331 0.0 2.0 0.00 0.00 0.00 93 1020.4
20210927134530 64 331 0.0 2.0 0.00 0.00 0.00 92 1020.4
20210927134030 63 331 0.0 1.0 0.00 0.00 0.00 92 1020.4
20210927133530 63 331 0.0 1.0 0.00 0.00 0.00 93 1020.4
20210927133031 62 331 1.0 1.0 0.00 0.00 0.00 94 1020.3
20210927132527 62 331 0.0 1.0 0.00 0.00 0.00 94 1020.3
20210927132027 61 331 1.0 2.0 0.00 0.00 0.00 94 1020.3
20210927131527 61 331 1.0 2.0 0.00 0.00 0.00 95 1020.3
20210927131026 60 334 1.0 2.0 0.00 0.00 0.00 95 1020.3
20210927130527 60 327 1.0 2.0 0.00 0.00 0.00 96 1020.3
20210927130028 60 324 1.0 2.0 0.00 0.00 0.00 96 1020.3
20210927125526 59 324 0.0 1.0 0.00 0.00 0.00 97 1020.3
20210927125022 59 324 0.0 1.0 0.00 0.00 0.00 97 1020.2
20210927124523 58 324 0.0 0.0 0.00 0.00 0.00 97 1020.2
20210927124024 58 324 0.0 0.0 0.00 0.00 0.00 97 1020.2
20210927123524 58 324 0.0 0.0 0.00 0.00 0.00 98 1020.1
20210927123026 57 324 0.0 0.0 0.00 0.00 0.00 98 1020.2
20210927122526 57 324 0.0 0.0 0.00 0.00 0.00 98 1020.1
20210927122024 57 324 0.0 0.0 0.00 0.00 0.00 97 1020.1
20210927121524 57 324 0.0 0.0 0.00 0.00 0.00 97 1020.1
20210927121026 57 324 0.0 0.0 0.00 0.00 0.00 97 1020.0
20210927120526 57 324 0.0 0.0 0.00 0.00 0.00 97 1020.1
20210927120027 56 324 0.0 0.0 0.00 0.00 0.00 97 1019.9
20210927115527 56 324 0.0 1.0 0.00 0.00 0.00 97 1019.8
20210927115029 56 324 0.0 0.0 0.00 0.00 0.00 97 1019.9
20210927114526 56 324 0.0 0.0 0.00 0.00 0.00 97 1019.8
20210927114025 56 324 0.0 0.0 0.00 0.00 0.00 97 1019.9
20210927113526 56 324 0.0 0.0 0.00 0.00 0.00 97 1019.9
20210927113027 56 324 0.0 0.0 0.00 0.00 0.00 97 1019.8
20210927112527 56 324 0.0 0.0 0.00 0.00 0.00 97 1019.8
20210927112027 56 324 0.0 0.0 0.00 0.00 0.00 97 1019.8
20210927111524 56 324 0.0 0.0 0.00 0.00 0.00 97 1019.8
20210927111024 56 324 0.0 0.0 0.00 0.00 0.00 97 1019.8
20210927110525 56 324 0.0 0.0 0.00 0.00 0.00 97 1019.8
20210927110024 56 324 0.0 0.0 0.00 0.00 0.00 97 1019.7
20210927105524 57 324 0.0 0.0 0.00 0.00 0.00 97 1019.7
20210927105025 57 324 0.0 0.0 0.00 0.00 0.00 97 1019.6
20210927104525 57 324 0.0 0.0 0.00 0.00 0.00 97 1019.6
20210927104022 57 324 0.0 0.0 0.00 0.00 0.00 97 1019.5
20210927103521 57 324 0.0 1.0 0.00 0.00 0.00 97 1019.5
20210927103020 57 324 0.0 1.0 0.00 0.00 0.00 97 1019.4
20210927102539 57 324 0.0 1.0 0.00 0.00 0.00 97 1019.4
20210927102039 57 324 0.0 1.0 0.00 0.00 0.00 97 1019.4
20210927101539 57 324 0.0 0.0 0.00 0.00 0.00 97 1019.2
20210927101036 57 324 0.0 0.0 0.00 0.00 0.00 97 1019.3
20210927100536 57 324 0.0 0.0 0.00 0.00 0.00 97 1019.2
20210927100034 57 324 0.0 0.0 0.00 0.00 0.00 97 1019.2
20210927095535 57 324 0.0 0.0 0.00 0.00 0.00 97 1019.2
20210927095033 57 324 0.0 0.0 0.00 0.00 0.00 97 1019.2
20210927094529 57 324 0.0 0.0 0.00 0.00 0.00 97 1019.2
20210927094024 57 324 0.0 0.0 0.00 0.00 0.00 97 1019.1
20210927093522 57 324 0.0 0.0 0.00 0.00 0.00 97 1019.1
20210927093022 57 324 0.0 0.0 0.00 0.00 0.00 97 1019.1
20210927092521 57 324 0.0 0.0 0.00 0.00 0.00 97 1019.0
20210927092040 57 324 0.0 0.0 0.00 0.00 0.00 97 1019.0
20210927091540 57 324 0.0 0.0 0.00 0.00 0.00 97 1019.0
20210927091033 58 324 0.0 0.0 0.00 0.00 0.00 97 1019.0
20210927090532 58 324 0.0 0.0 0.00 0.00 0.00 97 1018.9
20210927090032 57 324 0.0 0.0 0.00 0.00 0.00 97 1019.0
20210927085532 58 324 0.0 0.0 0.00 0.00 0.00 97 1019.0
20210927085033 58 324 0.0 0.0 0.00 0.00 0.00 97 1019.1
20210927084533 58 324 0.0 0.0 0.00 0.00 0.00 97 1019.0
20210927084032 58 324 0.0 0.0 0.00 0.00 0.00 97 1019.1
20210927083528 58 324 0.0 0.0 0.00 0.00 0.00 97 1019.1
20210927083028 58 324 0.0 0.0 0.00 0.00 0.00 97 1019.1
20210927082528 58 324 0.0 0.0 0.00 0.00 0.00 97 1019.0
20210927082022 58 324 0.0 0.0 0.00 0.00 0.00 97 1019.0
20210927081522 58 324 0.0 1.0 0.00 0.00 0.00 97 1019.1
20210927081022 58 324 0.0 2.0 0.00 0.00 0.00 96 1018.9
20210927080538 59 324 0.0 2.0 0.00 0.00 0.00 97 1018.9
20210927080038 59 324 0.0 1.0 0.00 0.00 0.00 97 1019.0
20210927075538 59 324 0.0 1.0 0.00 0.00 0.00 97 1019.0
20210927075038 59 272 0.0 1.0 0.00 0.00 0.00 97 1019.0
20210927074527 59 272 0.0 0.0 0.00 0.00 0.00 97 1019.1
20210927074031 59 272 0.0 0.0 0.00 0.00 0.00 97 1019.1
20210927073527 59 272 0.0 0.0 0.00 0.00 0.00 97 1019.1
20210927073026 59 272 0.0 0.0 0.00 0.00 0.00 97 1019.1
20210927072527 59 272 0.0 0.0 0.00 0.00 0.00 97 1019.2
20210927072027 59 272 0.0 0.0 0.00 0.00 0.00 97 1019.2
20210927071527 59 272 0.0 0.0 0.00 0.00 0.00 97 1019.2
20210927071026 59 272 0.0 0.0 0.00 0.00 0.00 96 1019.2
20210927070522 59 272 0.0 1.0 0.00 0.00 0.00 97 1019.2
20210927070021 59 272 0.0 1.0 0.00 0.00 0.00 97 1019.2
20210927065521 59 272 0.0 0.0 0.00 0.00 0.00 97 1019.2
20210927065021 59 272 0.0 0.0 0.00 0.00 0.00 97 1019.3
20210927064521 60 272 0.0 0.0 0.00 0.00 0.00 97 1019.3
20210927064021 60 272 0.0 0.0 0.00 0.00 0.00 97 1019.3
20210927063521 60 272 0.0 0.0 0.00 0.00 0.00 96 1019.2
20210927063036 60 272 0.0 0.0 0.00 0.00 0.00 97 1019.2
20210927062535 60 272 0.0 0.0 0.00 0.00 0.00 97 1019.2
20210927062034 60 272 0.0 0.0 0.00 0.00 0.00 96 1019.3
20210927061534 60 272 0.0 0.0 0.00 0.00 0.00 96 1019.3
20210927061033 60 272 0.0 0.0 0.00 0.00 0.00 96 1019.2
20210927060532 60 272 0.0 0.0 0.00 0.00 0.00 96 1019.2
20210927060028 60 272 0.0 0.0 0.00 0.00 0.00 96 1019.2
20210927055526 60 272 0.0 0.0 0.00 0.00 0.00 96 1019.2
20210927055026 60 272 0.0 0.0 0.00 0.00 0.00 96 1019.2
20210927054537 60 272 0.0 0.0 0.00 0.00 0.00 96 1019.1
20210927054036 61 272 0.0 0.0 0.00 0.00 0.00 96 1019.2
20210927053531 61 272 0.0 0.0 0.00 0.00 0.00 96 1019.2
20210927053031 61 272 0.0 0.0 0.00 0.00 0.00 96 1019.3
20210927052530 61 272 0.0 0.0 0.00 0.00 0.00 96 1019.3
20210927052029 61 272 0.0 0.0 0.00 0.00 0.00 96 1019.3
20210927051529 61 269 0.0 0.0 0.00 0.00 0.00 96 1019.3
20210927051030 61 259 0.0 0.0 0.00 0.00 0.00 96 1019.4
20210927050530 61 259 0.0 0.0 0.00 0.00 0.00 96 1019.4
20210927050045 61 259 0.0 0.0 0.00 0.00 0.00 96 1019.4
20210927045538 61 259 0.0 0.0 0.00 0.00 0.00 96 1019.4
20210927045038 61 259 0.0 0.0 0.00 0.00 0.00 96 1019.3
20210927044537 62 259 0.0 0.0 0.00 0.00 0.00 96 1019.4
20210927044038 62 259 0.0 0.0 0.00 0.00 0.00 96 1019.4
20210927043538 62 259 0.0 0.0 0.00 0.00 0.00 96 1019.4
20210927043034 62 259 0.0 0.0 0.00 0.00 0.00 95 1019.5
20210927042534 62 259 0.0 0.0 0.00 0.00 0.00 96 1019.4
20210927042035 62 259 0.0 0.0 0.00 0.00 0.00 96 1019.4
20210927041534 62 259 0.0 0.0 0.00 0.00 0.00 96 1019.4
20210927041033 62 259 0.0 0.0 0.00 0.00 0.00 96 1019.3
20210927040534 62 259 0.0 0.0 0.00 0.00 0.00 95 1019.3
20210927040029 62 259 0.0 0.0 0.00 0.00 0.00 95 1019.3
20210927035524 63 259 0.0 0.0 0.00 0.00 0.00 95 1019.3
20210927035024 63 259 0.0 0.0 0.00 0.00 0.00 95 1019.3
20210927034540 63 259 0.0 0.0 0.00 0.00 0.00 95 1019.3
20210927034040 63 259 0.0 0.0 0.00 0.00 0.00 95 1019.2
20210927033540 63 259 0.0 0.0 0.00 0.00 0.00 95 1019.2
20210927033036 63 259 0.0 0.0 0.00 0.00 0.00 95 1019.2
20210927032535 63 259 0.0 0.0 0.00 0.00 0.00 95 1019.1
20210927032031 63 259 0.0 0.0 0.00 0.00 0.00 95 1019.2
20210927031531 64 259 0.0 0.0 0.00 0.00 0.00 95 1019.1
20210927031031 63 259 0.0 0.0 0.00 0.00 0.00 94 1019.1
20210927030531 64 259 0.0 0.0 0.00 0.00 0.00 94 1019.0
20210927030033 64 259 0.0 0.0 0.00 0.00 0.00 94 1019.0
20210927025528 64 259 0.0 0.0 0.00 0.00 0.00 94 1018.9
20210927025028 64 259 0.0 0.0 0.00 0.00 0.00 95 1018.9
20210927024528 64 259 0.0 0.0 0.00 0.00 0.00 94 1018.9
20210927024028 64 259 0.0 1.0 0.00 0.00 0.00 94 1019.0
20210927023527 64 259 0.0 1.0 0.00 0.00 0.00 94 1019.0
20210927023027 64 259 0.0 1.0 0.00 0.00 0.00 94 1019.0
20210927022522 65 259 0.0 0.0 0.00 0.00 0.00 93 1019.0
20210927022021 65 259 0.0 0.0 0.00 0.00 0.00 93 1019.0
20210927021523 65 259 0.0 0.0 0.00 0.00 0.00 93 1018.9
20210927021039 65 259 0.0 0.0 0.00 0.00 0.00 93 1018.9
20210927020537 65 259 0.0 0.0 0.00 0.00 0.00 93 1018.9
20210927020040 65 259 0.0 0.0 0.00 0.00 0.00 92 1018.8
20210927015536 65 259 0.0 0.0 0.00 0.00 0.00 92 1018.8
20210927015034 65 259 0.0 0.0 0.00 0.00 0.00 92 1018.7
20210927014532 65 259 0.0 0.0 0.00 0.00 0.00 92 1018.7
20210927014025 65 259 0.0 1.0 0.00 0.00 0.00 92 1018.7
20210927013525 66 259 0.0 2.0 0.00 0.00 0.00 92 1018.7
20210927013022 66 259 1.0 2.0 0.00 0.00 0.00 91 1018.5
20210927012522 66 246 0.0 0.0 0.00 0.00 0.00 90 1018.5
20210927012034 66 246 0.0 0.0 0.00 0.00 0.00 90 1018.4
20210927011534 67 246 0.0 0.0 0.00 0.00 0.00 90 1018.4
20210927011033 67 246 0.0 0.0 0.00 0.00 0.00 90 1018.4
20210927010532 67 246 0.0 1.0 0.00 0.00 0.00 90 1018.4
20210927010032 67 246 0.0 1.0 0.00 0.00 0.00 90 1018.3
20210927005533 67 246 0.0 1.0 0.00 0.00 0.00 89 1018.2
20210927005028 67 246 0.0 0.0 0.00 0.00 0.00 88 1018.2
20210927004526 68 246 0.0 1.0 0.00 0.00 0.00 87 1018.1
20210927004022 68 246 0.0 1.0 0.00 0.00 0.00 86 1018.2
20210927003522 68 246 0.0 0.0 0.00 0.00 0.00 85 1018.1
20210927003023 68 246 0.0 2.0 0.00 0.00 0.00 85 1018.1
20210927002522 68 246 0.0 2.0 0.00 0.00 0.00 85 1018.1
20210927002038 69 248 0.0 1.0 0.00 0.00 0.00 84 1018.1
20210927001537 69 261 0.0 0.0 0.00 0.00 0.00 83 1018.0
20210927001038 69 262 0.0 1.0 0.00 0.00 0.00 83 1018.0
20210927000537 70 261 0.0 1.0 0.00 0.00 0.00 81 1017.9
20210927000037 70 262 0.0 1.0 0.00 0.00 0.00 81 1017.9
20210926235538 70 262 0.0 1.0 0.00 0.00 0.00 80 1017.8
20210926235033 71 252 0.0 0.0 0.00 0.00 0.00 79 1017.8
20210926234530 71 252 0.0 0.0 0.00 0.00 0.00 79 1017.7
20210926234038 72 252 0.0 1.0 0.00 0.00 0.00 78 1017.8
20210926233536 72 252 0.0 1.0 0.00 0.00 0.00 78 1017.8
20210926233037 73 252 0.0 0.0 0.00 0.00 0.00 75 1017.7
20210926232536 74 252 0.0 1.0 0.00 0.00 0.00 74 1017.7
20210926232031 74 252 0.0 1.0 0.00 0.00 0.00 73 1017.7
20210926231530 75 252 0.0 1.0 0.00 0.00 0.00 71 1017.7
20210926231031 76 252 0.0 1.0 0.00 0.00 0.00 69 1017.7
20210926230531 77 252 0.0 2.0 0.00 0.00 0.00 66 1017.7
20210926230030 77 252 1.0 2.0 0.00 0.00 0.00 65 1017.7
20210926225530 78 306 0.0 1.0 0.00 0.00 0.00 62 1017.8
20210926225029 79 306 0.0 1.0 0.00 0.00 0.00 60 1017.7
20210926224526 80 306 0.0 2.0 0.00 0.00 0.00 56 1017.7
20210926224025 81 306 0.0 2.0 0.00 0.00 0.00 51 1017.7
20210926223526 81 307 1.0 2.0 0.00 0.00 0.00 50 1017.7
20210926223023 81 320 1.0 2.0 0.00 0.00 0.00 52 1017.7
20210926222523 81 307 1.0 3.0 0.00 0.00 0.00 50 1017.7
20210926222022 81 299 1.0 4.0 0.00 0.00 0.00 49 1017.7
20210926221540 82 230 2.0 4.0 0.00 0.00 0.00 50 1017.7
20210926221038 82 292 2.0 4.0 0.00 0.00 0.00 49 1017.7
20210926220538 82 301 1.0 4.0 0.00 0.00 0.00 47 1017.8
20210926220035 82 302 2.0 4.0 0.00 0.00 0.00 46 1017.7
20210926215532 82 277 2.0 5.0 0.00 0.00 0.00 48 1017.7
20210926215032 82 315 3.0 5.0 0.00 0.00 0.00 47 1017.9
20210926214550 83 302 3.0 5.0 0.00 0.00 0.00 47 1017.9
20210926214038 83 308 3.0 5.0 0.00 0.00 0.00 45 1017.9
20210926213537 83 323 1.0 4.0 0.00 0.00 0.00 45 1017.9
20210926213036 83 299 3.0 4.0 0.00 0.00 0.00 45 1017.9
20210926212536 84 325 3.0 4.0 0.00 0.00 0.00 46 1018.0
20210926212032 83 325 1.0 2.0 0.00 0.00 0.00 49 1018.0
20210926211532 82 53 1.0 5.0 0.00 0.00 0.00 47 1018.0
20210926211032 83 5 2.0 5.0 0.00 0.00 0.00 48 1018.0
20210926210533 84 306 2.0 4.0 0.00 0.00 0.00 46 1018.0
20210926210033 84 298 1.0 5.0 0.00 0.00 0.00 44 1018.0
20210926205533 84 304 3.0 5.0 0.00 0.00 0.00 45 1018.0
20210926205033 83 304 3.0 5.0 0.00 0.00 0.00 46 1018.0
20210926204528 83 334 2.0 8.0 0.00 0.00 0.00 46 1018.1
20210926204030 84 317 3.0 8.0 0.00 0.00 0.00 45 1018.1
20210926203531 84 316 3.0 5.0 0.00 0.00 0.00 45 1018.1
20210926203032 84 292 3.0 5.0 0.00 0.00 0.00 44 1018.2
20210926202532 84 200 2.0 4.0 0.00 0.00 0.00 44 1018.2
20210926202031 84 336 2.0 6.0 0.00 0.00 0.00 44 1018.2
20210926201528 84 302 4.0 6.0 0.00 0.00 0.00 45 1018.2
20210926201029 84 313 2.0 5.0 0.00 0.00 0.00 43 1018.2
20210926200529 84 304 3.0 6.0 0.00 0.00 0.00 46 1018.3
20210926200029 84 273 4.0 10.0 0.00 0.00 0.00 44 1018.3
20210926195529 85 312 5.0 10.0 0.00 0.00 0.00 45 1018.4
20210926195030 84 308 2.0 5.0 0.00 0.00 0.00 46 1018.4
20210926194530 84 284 4.0 6.0 0.00 0.00 0.00 45 1018.5
20210926194035 84 306 2.0 7.0 0.00 0.00 0.00 47 1018.5
20210926193536 83 303 2.0 7.0 0.00 0.00 0.00 47 1018.6
20210926193035 83 317 3.0 6.0 0.00 0.00 0.00 49 1018.7
20210926192535 83 311 2.0 6.0 0.00 0.00 0.00 48 1018.8
20210926192035 83 24 3.0 6.0 0.00 0.00 0.00 45 1018.9
20210926191534 84 351 3.0 10.0 0.00 0.00 0.00 45 1018.8
20210926191037 84 317 3.0 10.0 0.00 0.00 0.00 46 1019.0
20210926190532 84 31 4.0 8.0 0.00 0.00 0.00 46 1019.1
20210926190032 85 349 4.0 8.0 0.00 0.00 0.00 47 1019.1
20210926185531 84 331 2.0 5.0 0.00 0.00 0.00 47 1019.2
20210926185023 82 264 1.0 4.0 0.00 0.00 0.00 44 1019.3
20210926184540 82 38 1.0 4.0 0.00 0.00 0.00 46 1019.4
20210926184039 82 68 1.0 8.0 0.00 0.00 0.00 48 1019.5
20210926183521 83 11 3.0 8.0 0.00 0.00 0.00 48 1019.6
20210926183022 82 308 2.0 7.0 0.00 0.00 0.00 45 1019.6
20210926182522 83 198 3.0 6.0 0.00 0.00 0.00 45 1019.7
20210926182022 82 302 2.0 6.0 0.00 0.00 0.00 45 1019.7
20210926181538 82 234 3.0 8.0 0.00 0.00 0.00 47 1019.9
20210926181036 82 165 2.0 8.0 0.00 0.00 0.00 45 1019.9
20210926180536 82 294 2.0 5.0 0.00 0.00 0.00 43 1019.9
20210926180036 82 292 2.0 5.0 0.00 0.00 0.00 47 1020.0
20210926175529 82 317 1.0 5.0 0.00 0.00 0.00 48 1020.1
20210926175028 83 201 4.0 5.0 0.00 0.00 0.00 47 1020.1
20210926174524 82 263 1.0 4.0 0.00 0.00 0.00 47 1020.2
20210926174023 81 319 2.0 8.0 0.00 0.00 0.00 47 1020.3
20210926173524 82 331 2.0 8.0 0.00 0.00 0.00 48 1020.4
20210926173024 81 200 1.0 2.0 0.00 0.00 0.00 47 1020.5
20210926172524 81 304 1.0 5.0 0.00 0.00 0.00 54 1020.5
20210926172024 80 294 2.0 7.0 0.00 0.00 0.00 48 1020.6
20210926171523 81 279 4.0 8.0 0.00 0.00 0.00 50 1020.8
20210926171039 81 29 3.0 8.0 0.00 0.00 0.00 50 1020.8
20210926170520 79 360 1.0 6.0 0.00 0.00 0.00 49 1020.9
20210926170020 80 294 1.0 5.0 0.00 0.00 0.00 53 1020.9
20210926165538 79 194 3.0 5.0 0.00 0.00 0.00 53 1021.0
20210926165038 79 329 1.0 4.0 0.00 0.00 0.00 52 1021.1
20210926164538 79 360 1.0 4.0 0.00 0.00 0.00 51 1021.1
20210926164033 79 327 1.0 5.0 0.00 0.00 0.00 51 1021.1
20210926163532 79 347 2.0 5.0 0.00 0.00 0.00 51 1021.1
20210926163032 79 298 1.0 5.0 0.00 0.00 0.00 52 1021.1
20210926162531 78 316 2.0 5.0 0.00 0.00 0.00 52 1021.2